Weather History for KATS - June, 2013

Change the Weather History Date:

Saturday, June 22, 2013

  Actual Average Record
Temperature  
Mean Temperature 86 °F -  
Max Temperature 102 °F 96 °F 109 °F (1960)
Min Temperature 69 °F 62 °F 52 °F (1973)
Cooling Degree Days 20    
Growing Degree Days 36 (Base 50)    
Moisture  
Dew Point 47 °F    
Average Humidity 35    
Maximum Humidity 68    
Minimum Humidity 7    
Precipitation  
Precipitation 0.00 in - - ()
Sea Level Pressure  
Sea Level Pressure 29.91 in    
Wind  
Wind Speed 17 mph (South)    
Max Wind Speed 30 mph    
Max Gust Speed 37 mph    
Visibility 10 miles    
Events      
Averages and records for this station are not official NWS values.
T = Trace of Precipitation, MM = Missing Value Source: NWS Daily Summary

Daily Weather History Graph

Daily Weather History Graph

Search for Another Location

Airport or City:

Trip Planner

Search our weather history database for the weather conditions in past years. The results will help you decide how hot, cold, wet, or windy it might be!

Date:

Astronomy

Jun. 22, 2013 Rise Set
Actual Time 5:50 AM MDT 8:09 PM MDT
Civil Twilight 5:21 AM MDT 8:38 PM MDT
Nautical Twilight 4:46 AM MDT 9:13 PM MDT
Astronomical Twilight 4:08 AM MDT 9:51 PM MDT
Moon 7:30 PM MDT (6/22) 5:02 AM MDT (6/22)
Length of Visible Light 15h 16m
Length of Day
14h 19m
Waxing Gibbous, 99% of the Moon is Illuminated
Jun 22
Waxing Gibbous
Jun 23
Full
Jun 29
Last Quarter
Jul 8
New
Jul 15
First Quarter

Hourly Weather History & Observations

Time (MDT) Temp. Heat Index Dew Point Humidity Pressure Visibility Wind Dir Wind Speed Gust Speed Precip Events Conditions
12:15 AM 77.0 °F - 60.8 °F 57% 29.96 in 10.0 mi SE 21.9 mph 28.8 mph N/A   Clear
12:35 AM 77.0 °F - 59.0 °F 54% 29.96 in 10.0 mi SE 20.7 mph - N/A   Clear
12:55 AM 77.0 °F - 59.0 °F 54% 29.96 in 10.0 mi SE 20.7 mph 31.1 mph N/A   Clear
1:15 AM 77.0 °F - 59.0 °F 54% 29.96 in 10.0 mi SSE 23.0 mph 27.6 mph N/A   Clear
1:35 AM 77.0 °F - 59.0 °F 54% 29.95 in 10.0 mi SE 21.9 mph 31.1 mph N/A   Clear
1:55 AM 75.2 °F - 59.0 °F 57% 29.95 in 10.0 mi SSE 21.9 mph 27.6 mph N/A   Clear
2:15 AM 75.2 °F - 59.0 °F 57% 29.96 in 10.0 mi SSE 18.4 mph - N/A   Clear
2:35 AM 75.2 °F - 59.0 °F 57% 29.96 in 10.0 mi SSE 16.1 mph - N/A   Clear
2:55 AM 73.4 °F - 59.0 °F 61% 29.96 in 10.0 mi SSE 12.7 mph 20.7 mph N/A   Clear
3:15 AM 73.4 °F - 59.0 °F 61% 29.95 in 10.0 mi SSE 13.8 mph - N/A   Clear
3:35 AM 73.4 °F - 59.0 °F 61% 29.95 in 10.0 mi SSE 11.5 mph - N/A   Clear
3:55 AM 73.4 °F - 59.0 °F 61% 29.95 in 10.0 mi SSE 15.0 mph - N/A   Clear
4:15 AM 71.6 °F - 59.0 °F 64% 29.95 in 10.0 mi SSE 8.1 mph - N/A   Clear
4:35 AM 71.6 °F - 59.0 °F 64% 29.96 in 10.0 mi SSE 10.4 mph - N/A   Clear
4:55 AM 71.6 °F - 59.0 °F 64% 29.96 in 10.0 mi South 9.2 mph - N/A   Clear
5:15 AM 69.8 °F - 59.0 °F 68% 29.96 in 10.0 mi SSE 10.4 mph - N/A   Clear
5:35 AM 69.8 °F - 59.0 °F 68% 29.96 in 10.0 mi SSE 12.7 mph - N/A   Clear
5:55 AM 69.8 °F - 59.0 °F 68% 29.96 in 10.0 mi SE 12.7 mph - N/A   Clear
6:15 AM 69.8 °F - 59.0 °F 68% 29.96 in 10.0 mi SSE 10.4 mph - N/A   Clear
6:35 AM 69.8 °F - 59.0 °F 68% 29.97 in 10.0 mi SSE 8.1 mph - N/A   Clear
6:55 AM 71.6 °F - 59.0 °F 64% 29.97 in 10.0 mi South 9.2 mph - N/A   Clear
7:15 AM 73.4 °F - 59.0 °F 61% 29.97 in 10.0 mi South 10.4 mph - N/A   Clear
7:35 AM 73.4 °F - 59.0 °F 61% 29.98 in 10.0 mi South 13.8 mph - N/A   Clear
7:55 AM 75.2 °F - 59.0 °F 57% 29.98 in 10.0 mi South 13.8 mph - N/A   Clear
8:15 AM 75.2 °F - 59.0 °F 57% 29.98 in 10.0 mi SSE 10.4 mph - N/A   Clear
8:35 AM 77.0 °F - 59.0 °F 54% 29.98 in 10.0 mi SSE 8.1 mph - N/A   Clear
8:55 AM 78.8 °F - 59.0 °F 51% 29.98 in 10.0 mi SSE 8.1 mph - N/A   Clear
9:15 AM 80.6 °F 81.1 °F 59.0 °F 48% 29.98 in 10.0 mi South 5.8 mph - N/A   Clear
9:35 AM 82.4 °F 82.0 °F 57.2 °F 42% 29.97 in 10.0 mi South 4.6 mph - N/A   Clear
9:55 AM 84.2 °F 83.5 °F 57.2 °F 40% 29.97 in 10.0 mi SE 3.5 mph - N/A   Clear
10:15 AM 86.0 °F 84.9 °F 57.2 °F 37% 29.96 in 10.0 mi ENE 3.5 mph - N/A   Clear
10:35 AM 89.6 °F 87.3 °F 53.6 °F 29% 29.96 in 10.0 mi NW 4.6 mph 16.1 mph N/A   Clear
10:55 AM 98.6 °F - 32.0 °F 10% 29.95 in 10.0 mi West 20.7 mph 27.6 mph N/A   Clear
11:15 AM 98.6 °F - 32.0 °F 10% 29.95 in 10.0 mi West 13.8 mph 24.2 mph N/A   Clear
11:35 AM 98.6 °F - 32.0 °F 10% 29.94 in 10.0 mi West 19.6 mph 29.9 mph N/A   Clear
11:55 AM 100.4 °F - 32.0 °F 9% 29.94 in 10.0 mi WSW 20.7 mph 28.8 mph N/A   Clear
12:15 PM 100.4 °F - 28.4 °F 8% 29.93 in 10.0 mi WSW 21.9 mph 32.2 mph N/A   Clear
12:35 PM 102.2 °F - 28.4 °F 7% 29.93 in 10.0 mi WSW 23.0 mph 29.9 mph N/A   Clear
12:55 PM 102.2 °F - 28.4 °F 7% 29.91 in 10.0 mi West 24.2 mph 32.2 mph N/A   Clear
1:15 PM 102.2 °F - 32.0 °F 9% 29.91 in 10.0 mi West 27.6 mph 34.5 mph N/A   Clear
1:35 PM 102.2 °F - 32.0 °F 9% 29.89 in 10.0 mi West 29.9 mph 35.7 mph N/A   Clear
1:55 PM 102.2 °F - 32.0 °F 9% 29.89 in 10.0 mi West 24.2 mph 35.7 mph N/A   Clear
2:15 PM 102.2 °F - 32.0 °F 9% 29.89 in 10.0 mi WSW 18.4 mph 28.8 mph N/A   Clear
2:35 PM 102.2 °F - 32.0 °F 9% 29.88 in 10.0 mi WSW 20.7 mph 35.7 mph N/A   Clear
2:55 PM 102.2 °F - 32.0 °F 9% 29.87 in 10.0 mi WSW 19.6 mph 34.5 mph N/A   Clear
3:15 PM 102.2 °F - 32.0 °F 9% 29.86 in 10.0 mi SW 25.3 mph 36.8 mph N/A   Clear
3:35 PM 100.4 °F - 30.2 °F 9% 29.86 in 10.0 mi SW 19.6 mph 31.1 mph N/A   Clear
3:55 PM 102.2 °F - 28.4 °F 7% 29.85 in 10.0 mi SSW 18.4 mph 28.8 mph N/A   Clear
4:15 PM 102.2 °F - 28.4 °F 7% 29.84 in 10.0 mi SW 15.0 mph 29.9 mph N/A   Clear
4:35 PM 102.2 °F - 28.4 °F 7% 29.84 in 10.0 mi WSW 21.9 mph 28.8 mph N/A   Clear
4:55 PM 102.2 °F - 28.4 °F 7% 29.83 in 10.0 mi SW 20.7 mph 33.4 mph N/A   Clear
5:15 PM 100.4 °F - 28.4 °F 8% 29.83 in 10.0 mi SW 21.9 mph 28.8 mph N/A   Clear
5:35 PM 100.4 °F - 28.4 °F 8% 29.82 in 10.0 mi SW 24.2 mph 31.1 mph N/A   Clear
5:55 PM 100.4 °F - 30.2 °F 9% 29.82 in 10.0 mi SW 18.4 mph 27.6 mph N/A   Clear
6:15 PM 98.6 °F - 30.2 °F 9% 29.82 in 10.0 mi SW 10.4 mph - N/A   Clear
6:35 PM 98.6 °F - 30.2 °F 9% 29.82 in 10.0 mi WSW 9.2 mph - N/A   Clear
6:55 PM 98.6 °F - 30.2 °F 9% 29.82 in 10.0 mi SSW 16.1 mph 23.0 mph N/A   Clear
7:15 PM 96.8 °F - 32.0 °F 10% 29.82 in 10.0 mi SW 11.5 mph - N/A   Clear
7:35 PM 95.0 °F - 32.0 °F 11% 29.83 in 10.0 mi SSW 9.2 mph - N/A   Clear
7:55 PM 93.2 °F - 32.0 °F 11% 29.84 in 10.0 mi SSW 9.2 mph - N/A   Clear
8:15 PM 93.2 °F - 32.0 °F 11% 29.84 in 10.0 mi SSW 9.2 mph - N/A   Clear
8:35 PM 91.4 °F - 32.0 °F 12% 29.84 in 10.0 mi SSW 9.2 mph - N/A   Clear
8:55 PM 89.6 °F 87.3 °F 53.6 °F 29% 29.85 in 10.0 mi SSE 17.3 mph 26.5 mph N/A   Clear
9:15 PM 86.0 °F 84.9 °F 57.2 °F 37% 29.86 in 10.0 mi SSE 26.5 mph 34.5 mph N/A   Clear
9:35 PM 86.0 °F 84.9 °F 57.2 °F 37% 29.87 in 10.0 mi SSE 23.0 mph 29.9 mph N/A   Clear
9:55 PM 84.2 °F 83.8 °F 59.0 °F 42% 29.87 in 10.0 mi SSE 19.6 mph 27.6 mph N/A   Clear
10:15 PM 84.2 °F 83.8 °F 59.0 °F 42% 29.88 in 10.0 mi SSE 21.9 mph - N/A   Clear
10:35 PM 82.4 °F 82.5 °F 59.0 °F 45% 29.89 in 10.0 mi SSE 18.4 mph - N/A   Clear
10:55 PM 82.4 °F 82.5 °F 59.0 °F 45% 29.89 in 10.0 mi SSE 24.2 mph 28.8 mph N/A   Clear
11:15 PM 82.4 °F 82.5 °F 59.0 °F 45% 29.89 in 10.0 mi SSE 18.4 mph - N/A   Clear
11:35 PM 80.6 °F 81.1 °F 59.0 °F 48% 29.90 in 10.0 mi SSE 16.1 mph - N/A   Clear
11:55 PM 80.6 °F 81.1 °F 59.0 °F 48% 29.91 in 10.0 mi SSE 13.8 mph - N/A   Clear